Vorticity
6 6 6 6 6 6 6 6 6 6 6 6 6 6 6 6 7 7 7 7 7 7 7 8 8 8 8 7 7 7 7 7 7 6 6 6 6 6 6 6 6 6 6 6 6 6 7 7 7 7 7 7 8 8 8 7 7 7 7 7 6 6 6 6 6 6 6 7 7 7 7 7 7 7 7 7 7 7 7 7 6 6 6 5 5 5 5 5 5 5 4 5 5 5 5 5 5 4 4 4 4 5 5
6 6 6 6 6 6 6 6 6 6 6 6 6 6 6 6 7 7 7 7 7 7 8 8 8 8 8 7 7 7 7 7 7 7 6 6 6 6 6 6 6 6 6 7 7 7 7 7 7 7 7 7 8 8 8 8 8 8 7 7 6 6 6 6 6 6 6 6 7 7 7 7 7 7 7 7 7 7 7 7 7 6 6 6 6 5 5 5 5 5 5 5 5 5 5 5 5 5 5 5 5 5 5
6 6 6 6 6 6 6 6 6 6 6 6 6 6 6 6 7 7 7 7 7 7 8 8 8 8 8 7 7 7 7 7 7 7 7 7 7 7 7 7 7 7 7 7 7 7 7 7 7 7 7 7 8 8 8 8 8 8 8 7 7 7 7 7 6 6 6 6 6 7 7 7 7 7 7 7 8 8 8 7 7 7 6 6 6 6 6 6 5 5 5 5 5 5 5 5 5 5 5 5 5 6 6
6 6 6 6 5 5 5 5 5 5 5 6 6 6 6 6 6 7 7 7 7 7 7 7 7 7 7 7 7 7 7 7 7 7 7 7 7 7 7 7 7 7 7 7 7 7 7 7 7 7 7 7 8 8 8 8 8 9 9 8 8 8 8 8 7 7 7 7 7 7 7 7 7 7 7 7 8 8 8 8 7 7 7 6 6 6 6 6 6 5 5 5 5 5 5 5 5 5 6 6 6 6 6
6 6 5 5 5 5 5 5 5 5 5 5 5 6 6 6 6 7 7 7 7 7 7 7 7 7 7 7 7 7 7 7 7 7 7 7 7 7 7 7 7 7 7 7 7 7 7 7 7 7 7 7 8 8 8 8 8 9 9 9 9 9 9 9 8 8 8 7 7 7 7 7 7 7 7 7 7 7 8 8 8 7 7 7 7 7 7 6 6 6 6 6 6 6 6 6 6 6 6 6 7 7 7
6 6 5 5 5 5 5 5 5 5 5 5 5 6 6 6 6 7 7 7 7 7 7 7 7 7 7 7 7 7 7 7 7 7 7 7 7 7 7 7 7 7 7 7 7 7 7 7 7 7 7 7 7 8 8 8 8 8 9 9 9 9 9 9 9 9 8 8 8 8 7 7 7 7 7 7 7 7 7 8 8 8 7 7 7 7 7 7 7 6 6 6 6 6 6 6 6 6 7 7 8 8 8
6 5 5 5 5 5 5 5 5 5 5 5 5 6 6 6 7 7 7 7 7 7 7 7 7 7 7 7 7 7 7 7 7 7 7 7 7 7 7 7 7 7 7 7 7 7 7 7 7 7 7 7 7 7 7 7 7 8 8 8 8 8 9 9 9 9 9 8 8 8 8 7 7 7 7 7 7 7 7 7 7 8 8 7 7 7 7 8 8 7 7 7 7 7 7 7 7 7 8 8 9 9 9
6 5 5 5 5 5 5 5 5 5 5 5 6 6 6 7 7 7 7 7 7 7 7 7 7 7 7 7 7 7 7 7 7 7 7 7 7 7 7 7 7 7 7 7 8 8 8 8 7 7 7 7 6 6 6 6 6 7 7 7 7 7 8 8 8 8 8 8 8 8 8 7 7 7 7 7 7 7 7 7 7 7 7 8 7 7 7 7 8 8 8 8 8 8 8 8 8 8 9 9 9 10 10
5 5 5 5 5 5 5 5 5 5 5 6 6 6 6 7 7 7 7 7 7 7 7 7 7 7 7 7 7 7 7 7 7 7 7 7 7 7 7 7 7 7 7 7 7 8 8 8 8 7 7 6 6 6 6 6 6 6 6 6 6 6 7 7 7 7 7 7 7 7 7 7 7 7 7 7 7 7 7 7 7 7 7 8 8 8 7 7 8 8 8 8 8 9 9 9 9 9 9 9 9 9 9
5 5 5 5 5 5 5 6 6 6 6 6 6 6 6 7 7 7 7 6 6 6 7 7 7 7 7 7 7 7 8 7 7 7 7 7 7 7 7 6 6 6 7 7 7 7 8 8 8 7 7 7 6 6 5 5 5 5 5 5 5 6 6 6 6 6 6 7 7 7 7 7 7 7 7 7 7 7 7 7 7 7 7 7 8 8 8 8 8 8 8 8 8 9 9 9 9 9 9 8 8 8 7
5 5 5 5 5 5 5 6 6 6 6 6 6 6 6 7 7 7 7 6 6 6 6 6 7 7 7 7 7 7 7 7 7 7 7 7 7 7 7 6 6 6 6 6 7 7 7 7 8 7 7 7 6 6 5 5 5 5 5 5 5 5 5 6 6 6 6 6 6 6 7 7 7 7 7 7 7 7 7 7 7 7 7 7 7 8 8 8 8 8 8 8 8 8 8 8 8 7 7 6 5 4 4
4 4 4 5 5 5 5 6 6 6 6 6 6 6 6 6 7 7 6 6 6 6 6 6 6 6 6 7 7 7 7 7 7 7 7 7 7 7 7 6 6 6 6 6 6 7 7 7 7 7 7 7 7 6 6 5 5 5 5 5 5 5 5 6 6 6 6 6 6 6 6 6 6 7 7 7 7 7 7 7 7 7 7 7 7 7 7 7 7 7 7 7 7 7 6 6 5 5 4 3 3 2 2
5 4 4 4 5 5 5 5 6 6 6 6 6 6 6 6 7 7 7 7 6 6 6 6 6 6 6 6 6 7 7 7 7 7 7 7 7 7 7 7 6 6 6 6 6 6 6 7 7 7 7 7 7 6 6 6 5 5 5 5 5 5 6 6 6 6 6 6 6 6 6 6 6 7 7 7 7 7 7 7 7 7 7 7 7 7 7 7 7 6 6 6 6 5 5 4 4 4 3 3 3 3 3
5 5 5 5 5 5 5 5 6 6 6 6 6 6 6 6 7 7 7 7 7 6 6 6 6 6 6 6 6 6 6 7 7 7 7 7 7 7 7 7 7 6 6 6 6 6 6 6 7 7 7 7 7 7 6 6 6 6 6 6 6 6 6 6 6 6 6 6 6 6 6 6 6 7 7 7 7 7 7 7 7 7 7 7 7 7 7 7 6 6 6 6 5 5 5 5 5 5 5 5 5 5 6
5 5 5 5 5 5 5 5 6 6 6 6 6 6 6 6 7 7 7 7 7 7 6 6 6 6 6 6 6 6 6 6 6 6 7 7 7 7 7 7 7 7 7 6 6 6 6 6 6 7 7 7 7 7 7 6 6 6 6 6 6 6 6 6 6 6 6 6 6 6 6 6 7 7 7 7 7 7 7 7 7 7 7 7 7 7 7 7 7 6 6 6 6 6 6 6 6 6 6 7 7 7 7
5 5 6 6 6 6 6 6 6 6 6 6 6 6 6 6 6 7 7 8 8 7 7 7 6 6 6 6 6 6 5 6 6 6 7 7 7 7 8 8 7 7 7 7 7 7 6 6 6 6 7 7 7 7 7 6 6 6 6 6 6 6 6 6 6 6 6 6 6 6 6 6 6 7 7 7 7 7 7 7 7 7 7 7 7 7 7 7 7 7 7 7 7 7 7 7 7 7 7 7 7 7 7
6 6 6 6 6 6 6 6 6 6 6 6 6 6 6 6 6 6 7 7 8 8 7 7 7 6 6 6 6 6 6 6 6 6 6 7 7 7 8 8 8 8 8 7 7 7 7 7 6 6 6 6 7 7 6 6 6 6 6 6 6 6 6 6 6 6 6 6 6 6 6 6 6 7 7 7 7 7 7 7 7 7 7 7 7 7 7 7 7 7 7 7 7 7 7 7 7 7 7 7 7 7 7
6 6 6 6 6 6 6 6 6 6 6 6 6 6 6 6 6 6 6 7 7 7 7 7 7 7 7 6 6 6 6 6 6 6 6 7 7 7 8 8 8 8 8 8 7 7 7 7 7 6 6 6 6 6 6 6 6 6 6 6 6 6 6 6 6 6 6 6 6 6 6 6 6 6 6 7 7 7 7 7 7 7 7 7 7 7 6 6 6 6 7 7 7 6 6 6 6 6 6 6 6 6 6
6 6 6 6 6 6 6 6 6 6 6 6 6 6 6 6 6 6 6 6 7 7 7 7 7 7 7 7 7 7 6 6 6 6 6 7 7 7 8 8 8 8 8 8 8 7 7 7 7 7 6 6 6 6 6 6 6 6 6 6 6 5 5 5 6 6 6 6 6 6 6 6 6 6 6 6 6 6 6 6 6 7 7 6 6 6 6 6 6 6 6 6 6 6 6 6 6 6 6 6 6 7 7
6 6 6 6 7 7 7 7 7 7 7 6 6 6 6 6 6 6 6 6 6 6 6 6 6 6 6 6 6 6 7 6 6 6 7 7 7 7 8 8 8 8 8 8 8 7 7 7 7 7 6 6 6 6 6 6 6 6 6 6 5 5 5 5 5 6 6 6 6 6 6 6 6 6 6 6 6 6 6 6 6 6 6 6 6 6 6 6 6 6 5 5 5 5 5 5 5 6 6 6 7 7 8
6 6 6 6 7 7 7 7 7 7 7 7 6 6 6 6 6 6 6 6 6 6 6 6 6 6 6 6 6 6 6 6 6 7 7 7 7 8 8 8 8 8 8 8 8 7 7 7 7 7 6 6 6 6 6 6 6 6 6 6 5 5 5 5 5 6 6 6 6 6 6 6 6 5 5 5 5 5 5 5 5 5 6 6 6 6 5 5 5 5 5 5 5 5 5 5 6 6 7 8 8 9 9
6 6 6 6 7 7 7 7 7 7 7 7 7 6 6 6 6 6 6 6 6 6 6 6 6 6 6 6 5 5 5 5 6 6 7 7 7 8 8 8 8 8 8 8 8 7 7 7 7 7 7 6 6 6 6 6 6 6 6 6 6 5 5 5 5 6 6 6 6 6 6 6 5 5 5 5 5 5 5 5 5 5 5 5 5 5 5 5 5 5 5 5 5 5 6 6 7 8 8 9 9 10 10
6 6 7 7 7 7 7 7 7 7 7 7 7 7 6 6 6 6 6 6 6 6 6 6 6 6 6 6 6 5 5 5 5 6 6 7 8 8 8 8 8 8 8 8 8 8 7 7 7 7 7 6 6 6 6 6 6 6 6 6 6 6 6 6 6 6 6 6 6 6 6 5 5 5 5 5 5 5 5 5 5 5 5 5 5 5 5 5 5 5 5 5 6 6 7 8 8 9 9 10 10 10 9
6 6 7 7 7 7 7 6 7 7 7 7 7 7 7 6 6 6 6 6 6 6 6 6 6 6 6 6 6 6 5 5 5 5 6 7 7 8 8 8 8 8 8 8 8 8 7 7 7 7 7 6 6 6 6 6 6 6 6 6 6 6 6 6 6 6 6 6 6 6 5 5 5 5 5 5 5 5 5 4 4 4 4 5 5 5 5 5 5 5 6 6 7 8 8 9 9 10 10 10 9 9 8
6 7 7 7 7 7 7 7 7 6 6 6 7 7 7 7 6 6 6 6 5 5 6 6 6 6 6 6 6 6 6 6 5 5 5 6 7 7 8 8 8 8 8 8 8 8 8 8 8 7 7 6 6 6 6 6 6 6 6 6 6 6 6 6 6 6 6 6 6 6 5 5 5 5 5 5 5 5 5 5 5 5 5 5 5 5 5 6 6 6 7 8 8 9 9 10 10 10 9 9 8 8 7
6 6 6 7 7 7 7 7 7 6 6 6 6 6 6 7 6 6 6 6 6 5 5 5 6 6 6 6 6 6 6 6 6 6 6 6 6 7 7 8 8 8 8 8 8 8 8 8 8 8 8 7 6 6 6 6 6 6 6 6 6 6 6 6 6 6 6 6 6 6 5 5 5 5 5 5 5 5 5 5 5 5 5 5 6 6 6 7 7 7 8 8 9 9 10 10 9 9 8 8 7 7 7
5 6 6 6 6 6 7 7 7 7 6 6 6 6 6 6 6 7 6 6 6 6 5 5 5 6 6 6 6 6 6 6 6 6 6 6 7 7 7 8 8 8 9 9 9 8 8 8 8 8 8 7 7 6 6 6 6 6 6 6 6 6 6 6 7 6 6 6 6 6 5 5 5 5 5 5 5 5 5 5 5 5 6 6 6 7 7 7 8 8 9 9 9 9 9 9 8 8 7 7 6 6 6
5 5 5 6 6 6 6 7 7 7 7 6 6 6 6 6 6 6 6 6 6 6 5 5 5 5 5 6 6 6 6 6 6 6 7 7 7 7 7 7 8 8 8 9 9 9 9 8 8 8 8 8 7 6 6 6 6 6 6 6 6 6 6 7 7 7 6 6 6 6 6 6 6 6 6 6 6 6 6 6 6 6 6 7 7 7 8 8 8 9 9 9 9 9 8 8 7 6 6 6 5 5 5
5 5 5 6 6 6 6 6 6 7 7 7 7 7 6 6 6 6 6 6 6 6 6 5 5 5 5 6 6 6 6 6 6 6 7 7 7 7 7 7 7 8 8 8 9 9 9 9 9 9 9 9 8 7 7 7 7 7 7 7 7 7 7 7 7 7 7 6 6 6 6 6 6 6 6 6 6 6 6 6 7 7 7 7 7 8 8 8 9 9 9 9 9 8 7 7 6 6 5 5 5 5 5
5 5 5 5 6 6 6 6 6 6 6 7 7 7 6 7 6 6 6 6 6 6 6 6 5 5 5 5 6 6 6 6 6 6 6 7 7 7 7 7 7 7 8 8 8 8 9 9 9 9 9 9 9 8 7 7 7 7 7 7 7 7 7 7 7 7 7 7 6 6 6 6 6 6 7 7 7 7 7 7 7 7 7 7 8 8 8 8 9 9 9 8 8 7 7 6 5 5 5 4 4 4 4
6 5 5 5 5 6 6 6 6 6 6 7 7 7 6 6 7 7 6 6 6 6 6 6 6 6 6 5 5 5 6 6 6 6 6 6 7 7 7 7 7 7 7 7 8 8 8 9 9 9 9 10 9 9 8 7 7 7 7 7 7 7 7 7 7 7 7 7 7 7 7 7 7 7 7 7 7 7 7 7 7 7 7 8 8 8 8 8 8 8 8 8 7 7 6 5 5 4 4 4 4 4 4
5 5 5 5 5 5 5 6 6 6 6 6 7 7 7 7 7 7 6 6 6 6 6 6 6 6 6 6 5 5 5 5 6 6 6 6 7 7 7 7 7 7 7 7 7 8 8 8 9 9 9 9 10 9 9 8 7 7 7 7 7 7 7 7 7 7 7 7 7 7 7 7 7 7 7 7 7 7 7 7 7 7 7 7 8 8 8 8 8 8 8 7 7 6 5 5 4 4 4 4 4 4 4
5 5 6 5 5 5 5 6 6 6 6 6 6 7 7 7 7 7 7 7 6 6 6 6 6 6 6 6 6 5 5 5 5 5 5 6 6 7 7 7 7 7 7 7 7 7 8 8 8 9 9 9 9 9 9 8 7 7 7 7 7 8 8 7 7 7 7 7 7 7 7 7 7 7 7 7 7 7 7 7 7 7 7 7 7 8 8 8 8 8 7 7 6 5 5 4 4 4 3 3 3 3 3
5 5 5 6 6 5 5 6 6 5 5 6 6 6 7 7 7 7 7 7 6 6 6 6 6 6 6 6 6 6 5 5 5 5 5 5 6 6 7 7 7 7 7 7 7 7 7 8 8 8 8 8 8 9 9 8 8 7 6 7 7 7 8 8 7 7 7 7 7 7 7 7 7 7 7 6 6 6 7 7 7 7 7 7 7 7 7 7 7 7 7 6 6 5 4 4 4 3 3 3 3 3 3
5 5 5 6 6 6 6 6 5 5 6 6 6 6 7 7 7 7 7 7 7 7 6 6 6 6 6 6 6 6 6 6 5 5 5 5 5 6 6 7 7 7 7 7 7 7 7 7 8 8 8 8 8 8 8 8 8 7 6 6 7 7 7 7 7 7 7 7 7 7 7 7 7 7 6 6 6 6 6 6 6 7 7 7 7 7 7 7 7 6 6 6 5 5 4 4 4 3 3 3 3 3 3
5 5 6 6 6 6 6 6 6 6 6 6 6 6 6 7 7 8 8 7 7 7 6 7 7 6 6 6 6 6 6 6 6 6 5 5 5 6 6 7 7 7 7 7 7 7 7 7 7 8 8 7 7 7 7 7 7 7 6 6 6 7 7 7 7 7 7 7 7 7 7 7 7 6 6 6 6 6 6 6 6 6 6 6 6 6 6 6 6 6 6 5 5 4 4 4 4 3 3 3 3 3 3
6 6 6 6 6 6 6 6 6 6 6 6 6 6 7 7 7 8 8 8 7 7 7 7 7 7 6 6 6 6 6 6 6 6 6 6 5 6 6 7 7 7 7 6 6 6 7 7 7 7 8 7 7 6 6 7 7 7 7 6 6 6 6 7 7 7 7 7 7 7 7 7 6 6 6 6 6 6 6 6 6 6 6 6 6 6 6 6 6 5 5 5 4 4 4 4 4 4 4 4 3 3 3
6 6 6 6 6 6 6 6 6 6 6 6 7 7 7 7 7 7 7 7 8 8 7 7 7 7 7 6 6 6 6 6 6 6 6 6 6 6 6 6 7 7 7 6 6 6 6 6 6 7 7 7 7 7 6 7 7 7 7 6 6 6 6 6 6 6 6 6 6 6 6 6 6 6 6 5 5 5 5 5 5 5 5 5 5 5 5 5 5 5 5 4 4 4 4 4 3 3 4 4 4 4 4
7 7 7 7 7 7 6 6 6 6 6 7 7 7 7 7 7 7 7 7 7 7 7 7 7 7 7 7 7 7 6 6 6 6 6 6 6 6 6 6 7 7 7 7 6 6 6 6 6 6 7 7 7 7 7 7 7 7 7 7 6 6 6 6 6 6 6 6 6 6 6 6 6 5 5 5 5 5 5 5 5 5 5 5 5 5 5 5 5 5 5 4 4 4 4 4 3 3 3 4 4 4 4
7 7 7 7 7 7 6 6 6 6 6 7 7 7 7 7 6 7 7 7 7 7 7 7 7 7 8 7 7 7 7 6 6 6 6 6 6 6 6 6 6 7 7 7 7 7 7 7 6 6 6 7 7 7 7 7 7 7 7 7 7 6 6 6 6 6 6 5 5 5 5 5 5 5 5 5 5 5 5 5 5 5 5 5 5 5 5 5 5 5 4 4 4 4 4 4 4 3 3 3 4 4 4
8 8 7 7 7 7 6 6 6 6 6 6 6 6 6 7 7 6 7 7 7 7 7 7 7 7 8 8 8 8 7 7 7 6 6 6 6 6 6 6 6 6 7 7 7 7 7 7 7 7 6 6 6 7 7 7 7 7 7 7 7 6 6 6 5 5 6 5 5 5 5 5 5 4 4 4 4 4 4 5 5 5 5 5 5 5 5 5 5 5 5 4 4 4 4 4 4 4 4 4 4 4 4
8 8 7 7 7 7 6 6 6 6 6 6 6 6 6 7 7 7 7 7 7 7 7 8 8 8 8 8 8 8 8 8 8 7 7 7 7 7 6 6 6 6 6 7 7 8 8 7 7 7 7 7 6 6 6 6 6 7 7 7 7 7 6 6 6 5 5 5 5 5 5 5 4 4 4 4 4 4 4 4 4 5 5 5 5 5 5 5 5 5 5 5 5 4 4 4 4 4 4 4 4 4 4
7 7 7 7 7 6 6 6 6 6 6 6 6 6 7 7 7 7 7 7 7 7 7 8 8 8 8 8 8 9 9 8 8 8 8 8 8 7 7 7 6 6 6 7 7 7 7 7 7 7 7 7 7 7 6 6 6 6 7 7 7 7 6 6 6 5 5 5 5 5 5 5 4 4 4 4 4 4 4 4 4 4 5 5 5 5 5 5 5 5 5 4 4 5 5 5 5 5 5 5 4 4 4
7 7 7 7 6 6 6 6 6 6 6 6 7 7 7 7 7 7 7 7 7 7 7 7 8 8 9 9 9 9 9 9 9 9 9 9 8 8 8 8 7 7 7 7 7 7 7 7 7 7 7 7 7 7 7 7 6 6 6 6 6 6 6 6 6 5 5 5 5 5 5 5 5 4 4 4 4 4 4 4 4 4 4 4 4 5 5 5 4 4 4 4 4 4 4 5 5 5 5 5 5 5 4
6 6 6 6 6 6 6 6 6 6 7 7 7 7 8 7 7 7 7 7 8 7 7 7 7 8 9 9 8 8 9 8 8 8 9 9 9 9 9 8 8 7 7 7 7 6 6 7 7 7 7 7 8 8 8 7 7 6 6 6 6 6 6 6 6 6 5 5 5 5 5 5 5 4 4 4 4 4 4 4 4 4 4 4 4 4 4 4 4 4 4 4 4 4 4 4 4 5 5 5 5 5 5
6 6 6 6 6 6 7 7 7 7 7 8 8 8 8 7 7 7 7 7 7 8 7 7 7 7 8 8 8 8 8 8 8 8 8 8 9 9 9 9 8 8 7 7 7 7 7 7 7 7 7 7 7 7 8 8 7 7 7 6 6 6 6 6 6 6 5 5 5 5 5 5 5 4 4 4 4 4 4 4 4 4 4 4 4 4 4 4 4 4 4 4 4 4 4 4 4 4 4 5 5 5 5
5 6 6 6 6 6 6 7 7 7 7 7 8 8 7 7 7 7 7 7 7 7 7 7 7 7 7 7 7 7 7 7 7 7 7 8 8 8 8 8 8 8 8 7 7 7 7 7 7 7 7 7 7 7 7 8 8 8 7 7 6 6 6 6 6 6 6 5 5 5 5 5 5 5 4 4 4 4 4 4 4 4 4 4 4 4 4 4 4 4 4 4 4 4 3 3 3 3 4 4 4 4 4
5 6 6 6 6 6 6 6 6 7 7 7 7 7 7 7 7 6 6 6 6 6 6 6 6 6 6 6 6 5 6 6 6 6 7 7 7 7 7 8 8 7 7 7 7 7 7 7 7 7 7 7 7 7 7 7 7 8 8 7 7 6 6 6 6 6 6 6 6 6 6 6 5 5 5 5 5 5 5 5 5 5 5 4 4 4 4 4 4 5 5 5 4 4 4 4 3 3 3 3 4 4 4
5 5 5 5 5 5 5 5 6 6 6 6 6 6 6 6 6 6 6 6 6 6 6 5 5 5 5 5 5 5 5 5 5 5 5 6 7 7 6 6 7 7 6 6 7 7 7 6 7 7 7 7 7 7 7 7 7 7 7 7 7 7 6 6 6 6 6 6 6 6 6 6 6 6 5 5 5 5 5 6 6 6 6 5 5 5 5 5 5 5 5 5 5 5 5 4 4 4 3 3 3 3 4
5 5 5 5 5 5 5 5 5 5 5 6 6 6 6 5 5 5 5 5 5 5 5 5 5 5 5 5 5 5 5 5 5 5 5 5 6 7 7 6 6 6 6 5 5 5 6 6 6 6 7 7 7 7 7 7 6 6 6 6 7 7 7 7 6 6 6 6 6 6 6 6 7 6 6 5 5 5 6 6 6 6 6 6 6 6 5 5 5 5 5 5 5 5 5 5 5 4 4 4 3 3 3
4 4 4 4 4 4 5 5 5 5 5 5 5 5 5 5 5 5 5 5 5 5 4 5 5 5 4 5 5 5 5 5 4 4 5 5 5 5 7 7 6 6 5 5 5 4 5 5 5 5 6 7 7 7 8 7 7 7 7 7 7 7 7 7 7 7 7 6 6 6 6 6 7 7 7 6 5 5 6 6 7 7 7 7 7 6 6 6 6 5 5 5 5 6 6 6 6 6 5 5 4 4 3
4 4 4 4 4 5 5 5 5 5 5 5 5 5 5 5 5 5 5 5 5 5 4 5 5 5 5 5 5 5 4 5 4 3 4 4 4 4 5 6 6 6 5 6 6 5 4 4 4 4 5 6 7 7 7 7 7 7 7 7 7 7 7 7 7 7 7 7 6 6 6 6 6 7 7 6 6 5 5 6 6 7 7 7 7 7 7 7 6 6 6 5 5 6 6 6 6 6 6 5 5 4 4
5 5 5 5 5 5 5 5 5 5 5 5 5 5 5 5 5 5 5 5 5 5 5 5 5 5 5 5 5 5 5 5 4 4 4 4 5 5 5 5 5 6 6 7 7 7 4 4 4 4 4 6 6 7 7 7 7 7 8 7 7 7 7 7 8 8 8 7 7 7 6 6 6 6 7 6 6 5 5 5 6 7 7 7 7 7 7 7 7 6 6 6 6 6 6 6 6 6 6 6 6 5 5
5 5 5 6 5 5 5 5 5 5 5 5 5 5 5 5 6 6 6 5 5 5 5 5 5 5 5 5 5 5 6 5 5 5 5 5 5 5 6 5 5 5 6 5 7 8 6 4 4 5 5 5 6 7 7 7 7 8 8 8 8 8 7 8 8 8 8 8 8 7 7 7 7 7 7 7 6 6 5 5 6 6 7 7 7 7 7 7 7 7 6 6 6 6 6 6 6 6 6 6 6 6 5
5 6 6 6 6 6 6 6 5 5 5 5 5 5 6 6 6 6 6 6 6 6 6 6 6 6 6 6 6 6 6 7 7 7 7 7 7 7 6 6 7 7 7 6 6 7 7 6 5 6 6 6 6 7 7 7 8 8 9 9 9 9 9 9 9 9 9 9 9 9 8 8 8 8 8 7 7 7 6 6 6 6 7 7 7 7 7 7 7 7 7 6 6 6 6 6 6 6 6 6 6 6 5
6 6 7 7 6 6 6 6 6 6 6 6 6 6 6 6 6 6 6 6 6 6 6 6 7 7 7 8 8 8 8 9 10 10 10 10 10 9 9 9 8 8 8 8 8 8 7 7 7 7 7 6 6 7 7 7 8 9 10 10 10 10 10 10 10 10 10 10 10 10 9 9 9 9 9 9 9 8 7 7 7 7 7 7 7 7 7 7 7 7 7 7 6 6 7 6 6 6 6 6 6 5 5
7 7 7 7 7 7 7 7 7 7 7 7 7 7 7 7 7 7 7 7 7 7 8 9 9 10 11 11 11 11 12 12 12 12 12 11 11 11 10 10 10 10 10 10 10 10 9 8 8 8 8 6 6 6 7 7 7 8 8 9 9 9 9 9 9 10 10 10 11 11 10 10 9 9 9 10 10 9 9 8 8 8 9 8 8 8 8 8 8 8 8 7 7 7 7 7 7 6 6 6 5 5 5
7 8 8 8 8 8 8 8 8 8 7 7 7 7 7 7 7 8 8 9 9 10 12 13 14 14 14 13 13 12 12 11 11 10 10 10 10 10 10 10 10 11 10 10 10 11 11 11 10 9 9 8 6 5 5 6 6 7 7 7 7 7 7 8 9 9 9 10 10 10 10 10 10 10 10 10 10 10 9 9 10 10 10 10 9 9 9 9 9 9 9 8 8 8 8 7 7 7 6 6 5 5 4
8 8 8 8 8 8 8 8 8 8 8 8 8 8 8 8 9 10 12 13 13 13 14 13 13 12 11 11 11 10 9 8 8 8 8 8 9 9 9 9 9 9 9 9 9 10 11 11 11 10 9 9 8 6 4 4 4 5 6 6 6 6 6 6 7 8 8 9 9 10 10 10 10 10 10 10 9 9 9 9 10 10 11 10 10 10 10 10 10 10 10 9 9 9 9 8 8 7 7 6 5 5 4
8 8 8 8 8 8 8 8 8 8 8 8 8 9 10 11 13 14 15 14 13 12 11 9 8 7 8 7 6 5 5 5 6 7 8 8 8 8 8 8 8 8 8 7 7 8 9 10 10 11 11 11 11 10 8 6 4 4 5 6 6 6 5 5 5 6 6 7 8 8 9 9 9 9 9 9 9 9 9 9 9 9 10 9 9 9 9 10 10 10 10 10 10 9 9 9 8 7 7 6 5 5 4
9 9 9 8 8 8 8 8 8 8 8 9 10 11 13 13 13 12 12 10 9 8 6 5 4 4 5 4 4 4 4 5 7 8 8 7 7 7 8 8 7 6 7 6 6 7 8 10 12 14 14 13 13 13 11 10 7 6 6 6 6 6 6 5 5 4 4 4 5 6 7 7 8 8 9 9 8 8 8 8 8 8 7 7 7 8 8 9 9 9 10 10 9 9 9 8 7 6 6 5 5 4 4
Height
5898 5898 5897 5897 5897 5897 5897 5896 5896 5896 5896 5895 5895 5895 5894 5894 5894 5894 5894 5893 5893 5893 5892 5892 5892 5891 5891 5890 5890 5889 5889 5889 5889 5888 5888 5887 5887 5887 5886 5886 5886 5885 5885 5885 5884 5884 5884 5884 5883 5883 5882 5882 5882 5882 5882 5881 5881 5880 5880 5879 5879 5879 5879 5878 5878 5878 5878 5877 5877 5877 5876 5876 5876 5876 5875 5875 5874 5875 5875 5874 5874 5874 5873 5873 5873 5873 5872 5871 5871 5871 5869 5869 5869 5869 5869 5869 5868 5868 5868 5868 5867 5866 5866
5897 5897 5897 5896 5896 5896 5896 5895 5895 5895 5895 5894 5894 5894 5894 5893 5893 5893 5892 5892 5892 5891 5891 5891 5890 5890 5890 5889 5889 5889 5888 5888 5888 5887 5887 5886 5886 5886 5885 5885 5885 5884 5884 5884 5883 5883 5883 5882 5882 5881 5881 5881 5881 5880 5880 5880 5880 5879 5879 5879 5878 5878 5878 5877 5877 5877 5876 5876 5876 5875 5875 5875 5875 5874 5874 5873 5874 5874 5873 5873 5873 5872 5872 5871 5871 5872 5872 5871 5870 5869 5869 5868 5868 5868 5868 5867 5867 5867 5866 5866 5866 5865 5865
5896 5896 5896 5896 5895 5895 5895 5894 5894 5894 5894 5893 5893 5893 5893 5892 5892 5892 5891 5891 5891 5890 5890 5890 5889 5889 5889 5888 5888 5888 5887 5887 5887 5886 5886 5885 5885 5885 5884 5884 5884 5884 5883 5883 5882 5882 5882 5881 5881 5880 5880 5880 5879 5879 5879 5879 5878 5878 5878 5877 5877 5877 5876 5876 5876 5876 5875 5875 5874 5874 5874 5874 5874 5873 5873 5872 5872 5872 5872 5872 5872 5871 5870 5870 5870 5870 5870 5869 5869 5868 5867 5867 5867 5866 5866 5866 5866 5865 5865 5865 5864 5864 5864
5895 5895 5895 5895 5894 5894 5894 5894 5893 5893 5893 5892 5892 5892 5892 5891 5891 5891 5890 5890 5890 5889 5889 5889 5888 5888 5888 5887 5887 5887 5886 5886 5886 5885 5885 5884 5884 5884 5884 5883 5883 5883 5882 5882 5881 5881 5881 5880 5880 5879 5879 5879 5879 5878 5878 5877 5877 5877 5876 5876 5876 5875 5875 5875 5875 5874 5874 5874 5874 5873 5873 5873 5872 5872 5872 5871 5871 5871 5871 5871 5870 5870 5869 5869 5869 5868 5868 5868 5868 5867 5866 5866 5865 5865 5865 5865 5864 5864 5864 5864 5864 5863 5862
5894 5894 5894 5894 5893 5893 5893 5893 5892 5892 5892 5891 5891 5891 5890 5890 5890 5890 5889 5889 5889 5889 5888 5888 5887 5887 5887 5886 5886 5885 5885 5885 5884 5884 5884 5884 5883 5883 5883 5882 5882 5882 5881 5881 5880 5880 5880 5879 5879 5878 5878 5878 5877 5877 5877 5876 5876 5876 5875 5875 5874 5874 5874 5874 5874 5873 5873 5873 5872 5872 5872 5871 5871 5871 5870 5870 5870 5869 5869 5869 5869 5869 5868 5867 5867 5867 5867 5867 5866 5866 5865 5864 5864 5864 5864 5863 5863 5863 5863 5863 5862 5862 5861
5893 5893 5893 5893 5892 5892 5892 5891 5891 5891 5890 5890 5890 5890 5889 5889 5889 5889 5889 5888 5888 5887 5887 5887 5886 5886 5885 5885 5885 5884 5884 5884 5884 5883 5883 5883 5882 5882 5882 5881 5881 5881 5880 5880 5879 5879 5879 5879 5878 5877 5877 5876 5876 5876 5876 5875 5875 5874 5874 5874 5874 5873 5873 5873 5872 5872 5872 5871 5871 5871 5870 5870 5870 5869 5869 5869 5869 5868 5868 5868 5868 5868 5867 5866 5866 5865 5865 5865 5865 5865 5864 5864 5863 5863 5862 5862 5862 5862 5861 5861 5861 5860 5860
5892 5892 5892 5891 5891 5891 5890 5890 5890 5890 5889 5889 5889 5889 5889 5888 5888 5888 5888 5887 5887 5886 5886 5886 5885 5885 5884 5884 5884 5883 5883 5883 5882 5882 5882 5882 5881 5881 5881 5880 5880 5879 5879 5879 5879 5878 5878 5878 5877 5876 5876 5875 5875 5875 5874 5874 5874 5873 5873 5873 5872 5872 5872 5871 5871 5871 5870 5870 5869 5869 5869 5869 5868 5868 5868 5868 5867 5867 5867 5866 5866 5866 5866 5865 5864 5864 5864 5864 5864 5863 5863 5863 5862 5862 5861 5861 5860 5860 5860 5860 5859 5859 5859
5891 5891 5890 5890 5890 5890 5889 5889 5889 5889 5889 5888 5888 5888 5888 5887 5887 5887 5886 5886 5886 5885 5885 5884 5884 5884 5883 5883 5883 5882 5882 5882 5881 5881 5881 5880 5880 5880 5879 5879 5879 5879 5878 5878 5877 5877 5877 5876 5876 5875 5875 5874 5874 5874 5873 5873 5872 5872 5872 5871 5871 5870 5870 5870 5869 5869 5869 5869 5868 5868 5868 5867 5867 5867 5866 5866 5866 5866 5865 5865 5865 5864 5864 5864 5864 5863 5862 5862 5862 5862 5861 5861 5861 5860 5860 5859 5859 5859 5858 5858 5858 5858 5857
5890 5889 5889 5889 5889 5889 5889 5888 5888 5888 5888 5887 5887 5887 5887 5886 5886 5886 5885 5885 5885 5884 5884 5884 5883 5883 5882 5882 5881 5881 5881 5880 5880 5880 5879 5879 5879 5879 5878 5878 5878 5877 5877 5876 5876 5876 5875 5875 5874 5874 5874 5873 5873 5872 5872 5871 5871 5871 5870 5870 5869 5869 5869 5869 5868 5868 5868 5867 5867 5867 5866 5866 5866 5865 5865 5865 5865 5864 5864 5864 5864 5864 5863 5863 5862 5862 5861 5861 5860 5860 5860 5859 5859 5859 5859 5858 5858 5857 5857 5857 5856 5856 5856
5889 5889 5888 5888 5888 5888 5887 5887 5887 5887 5886 5886 5886 5886 5886 5885 5885 5885 5884 5884 5884 5883 5883 5883 5882 5882 5881 5881 5880 5880 5880 5879 5879 5879 5878 5878 5878 5877 5877 5877 5876 5876 5876 5875 5875 5874 5874 5874 5873 5873 5872 5872 5871 5871 5870 5870 5870 5869 5869 5869 5868 5868 5868 5867 5867 5867 5866 5866 5865 5865 5865 5865 5864 5864 5864 5864 5864 5863 5863 5863 5862 5862 5862 5861 5861 5861 5860 5860 5859 5859 5859 5858 5858 5858 5857 5857 5857 5856 5856 5855 5855 5855 5854
5888 5888 5887 5887 5887 5886 5886 5886 5886 5886 5885 5885 5885 5885 5884 5884 5884 5884 5884 5883 5883 5882 5882 5882 5881 5881 5880 5880 5879 5879 5879 5878 5878 5878 5877 5877 5877 5876 5876 5876 5875 5875 5874 5874 5874 5873 5873 5872 5872 5871 5871 5871 5870 5870 5869 5869 5869 5868 5868 5867 5867 5867 5866 5866 5866 5865 5865 5865 5864 5864 5864 5864 5863 5863 5863 5862 5862 5862 5862 5861 5861 5861 5860 5860 5860 5859 5859 5859 5859 5858 5858 5857 5857 5857 5856 5856 5856 5855 5855 5855 5854 5854 5854
5887 5886 5886 5886 5886 5885 5885 5885 5885 5884 5884 5884 5884 5884 5884 5883 5883 5883 5882 5882 5882 5881 5881 5880 5880 5880 5879 5879 5879 5878 5878 5877 5877 5877 5876 5876 5875 5875 5875 5874 5874 5874 5873 5873 5873 5872 5872 5871 5871 5870 5870 5869 5869 5869 5868 5868 5867 5867 5867 5866 5866 5866 5865 5865 5865 5864 5864 5864 5863 5863 5863 5862 5862 5862 5861 5861 5861 5861 5860 5860 5860 5859 5859 5859 5859 5858 5858 5858 5858 5857 5857 5857 5856 5856 5855 5855 5855 5854 5854 5854 5854 5853 5853
5885 5885 5885 5885 5884 5884 5884 5884 5884 5884 5883 5883 5883 5883 5882 5882 5882 5881 5881 5881 5880 5880 5880 5879 5879 5879 5878 5878 5877 5877 5877 5876 5876 5876 5875 5875 5874 5874 5874 5874 5873 5873 5872 5872 5871 5871 5870 5870 5869 5869 5869 5868 5868 5868 5867 5867 5866 5866 5865 5865 5865 5864 5864 5864 5864 5863 5863 5863 5862 5862 5862 5861 5861 5861 5860 5860 5860 5859 5859 5859 5859 5859 5858 5858 5857 5857 5857 5857 5856 5856 5856 5855 5855 5855 5854 5854 5854 5854 5853 5853 5853 5852 5852
5884 5884 5883 5883 5883 5883 5883 5883 5883 5882 5882 5882 5882 5881 5881 5881 5880 5880 5880 5879 5879 5879 5879 5878 5878 5877 5877 5877 5876 5876 5875 5875 5875 5874 5874 5874 5874 5873 5873 5872 5872 5871 5871 5870 5870 5869 5869 5869 5868 5868 5868 5867 5867 5866 5866 5866 5865 5865 5864 5864 5864 5864 5863 5863 5863 5862 5862 5861 5861 5861 5860 5860 5860 5859 5859 5859 5859 5859 5858 5858 5858 5857 5857 5857 5856 5856 5856 5855 5855 5855 5854 5854 5854 5854 5854 5853 5853 5852 5852 5852 5851 5851 5850
5883 5882 5882 5882 5882 5882 5881 5881 5881 5881 5881 5881 5880 5880 5880 5879 5879 5879 5879 5878 5878 5878 5877 5877 5876 5876 5876 5875 5875 5874 5874 5874 5874 5873 5873 5873 5872 5872 5871 5871 5871 5870 5870 5869 5869 5868 5868 5868 5867 5867 5866 5866 5866 5865 5865 5864 5864 5864 5864 5863 5863 5862 5862 5862 5861 5861 5861 5860 5860 5859 5859 5859 5859 5858 5858 5858 5858 5857 5857 5857 5856 5856 5856 5855 5855 5855 5854 5854 5854 5854 5853 5853 5853 5852 5852 5852 5851 5851 5851 5850 5850 5849 5849
5882 5881 5881 5881 5880 5880 5880 5880 5880 5879 5879 5879 5879 5879 5879 5878 5878 5878 5877 5877 5877 5876 5876 5875 5875 5874 5874 5874 5874 5873 5873 5872 5872 5872 5872 5871 5871 5870 5870 5870 5869 5869 5868 5868 5868 5867 5867 5866 5866 5865 5865 5865 5864 5864 5864 5863 5863 5863 5862 5862 5861 5861 5861 5860 5860 5860 5859 5859 5859 5858 5858 5858 5857 5857 5856 5856 5856 5856 5856 5855 5855 5855 5854 5854 5854 5854 5853 5853 5853 5852 5852 5852 5851 5851 5851 5850 5850 5850 5849 5849 5849 5848 5848
5881 5880 5880 5880 5879 5879 5879 5879 5878 5878 5878 5878 5878 5877 5877 5877 5877 5876 5876 5875 5875 5875 5874 5874 5874 5873 5873 5872 5872 5872 5871 5871 5871 5870 5870 5870 5869 5869 5869 5868 5868 5867 5867 5866 5866 5866 5865 5865 5864 5864 5864 5864 5863 5863 5862 5862 5862 5861 5861 5860 5860 5860 5859 5859 5859 5858 5858 5858 5857 5857 5857 5856 5856 5855 5855 5855 5855 5854 5854 5854 5854 5853 5853 5853 5852 5852 5852 5851 5851 5851 5850 5850 5850 5849 5849 5849 5849 5848 5848 5847 5847 5846 5846
5880 5879 5879 5879 5879 5878 5878 5877 5877 5877 5876 5876 5876 5876 5876 5875 5875 5875 5874 5874 5874 5873 5873 5873 5872 5872 5871 5871 5870 5870 5870 5869 5869 5869 5869 5868 5868 5868 5867 5867 5866 5866 5865 5865 5864 5864 5864 5864 5863 5863 5863 5862 5862 5861 5861 5861 5860 5860 5859 5859 5859 5858 5858 5858 5857 5857 5857 5856 5856 5856 5855 5855 5854 5854 5854 5854 5853 5853 5853 5852 5852 5852 5852 5851 5851 5851 5850 5850 5850 5849 5849 5849 5849 5848 5848 5847 5847 5847 5846 5846 5845 5845 5844
5879 5879 5878 5878 5877 5877 5877 5876 5876 5875 5875 5875 5874 5874 5874 5874 5874 5874 5873 5873 5872 5872 5872 5871 5871 5870 5870 5869 5869 5869 5868 5868 5868 5867 5867 5867 5867 5866 5866 5865 5865 5864 5864 5863 5863 5863 5863 5862 5862 5861 5861 5861 5860 5860 5860 5859 5859 5859 5858 5858 5857 5857 5856 5856 5856 5855 5855 5855 5854 5854 5854 5854 5853 5853 5852 5852 5852 5851 5851 5851 5851 5850 5850 5850 5849 5849 5849 5849 5848 5848 5848 5847 5847 5847 5846 5846 5845 5845 5845 5844 5844 5844 5843
5878 5878 5877 5877 5876 5876 5875 5875 5875 5874 5874 5874 5873 5873 5873 5873 5872 5872 5872 5871 5871 5870 5870 5870 5869 5869 5869 5868 5868 5867 5867 5867 5866 5866 5866 5865 5865 5865 5864 5864 5863 5863 5862 5862 5862 5861 5861 5860 5860 5860 5859 5859 5859 5859 5858 5858 5858 5857 5857 5856 5856 5855 5855 5855 5854 5854 5854 5853 5853 5853 5852 5852 5852 5851 5851 5850 5850 5850 5849 5849 5849 5849 5849 5848 5848 5848 5848 5847 5847 5847 5846 5846 5845 5845 5845 5844 5844 5844 5843 5843 5842 5842 5842
5877 5876 5876 5875 5875 5874 5874 5874 5873 5873 5873 5872 5872 5871 5871 5871 5871 5870 5870 5870 5869 5869 5869 5868 5868 5868 5867 5867 5866 5866 5866 5865 5865 5864 5864 5864 5864 5863 5863 5862 5862 5861 5861 5860 5860 5860 5859 5859 5859 5858 5858 5858 5858 5857 5857 5856 5856 5856 5855 5855 5854 5854 5854 5853 5853 5852 5852 5852 5851 5851 5851 5850 5850 5850 5849 5849 5849 5849 5848 5848 5848 5847 5847 5847 5847 5846 5846 5846 5845 5845 5845 5844 5844 5844 5843 5843 5843 5842 5842 5841 5841 5841 5840
5876 5875 5875 5874 5874 5874 5873 5873 5872 5872 5871 5871 5870 5870 5870 5870 5869 5869 5869 5868 5868 5868 5867 5867 5866 5866 5866 5865 5865 5865 5864 5864 5864 5863 5863 5862 5862 5862 5861 5861 5860 5860 5860 5859 5859 5859 5858 5858 5857 5857 5856 5856 5856 5856 5855 5855 5854 5854 5854 5854 5853 5853 5852 5852 5851 5851 5850 5850 5850 5849 5849 5849 5849 5848 5848 5848 5847 5847 5847 5846 5846 5846 5845 5845 5845 5845 5844 5844 5844 5844 5843 5843 5843 5842 5842 5842 5841 5841 5840 5840 5840 5839 5839
5874 5874 5874 5873 5873 5873 5872 5871 5871 5870 5870 5869 5869 5869 5869 5868 5868 5868 5867 5867 5867 5866 5866 5865 5865 5865 5864 5864 5864 5863 5863 5863 5862 5862 5861 5861 5860 5860 5860 5859 5859 5859 5858 5858 5858 5857 5857 5856 5856 5855 5855 5855 5854 5854 5854 5854 5853 5853 5852 5852 5852 5851 5851 5850 5850 5849 5849 5849 5849 5848 5848 5847 5847 5847 5846 5846 5846 5845 5845 5845 5844 5844 5844 5844 5844 5843 5843 5843 5842 5842 5842 5842 5841 5841 5840 5840 5840 5839 5839 5839 5838 5838 5837
5873 5873 5872 5872 5872 5871 5871 5870 5870 5869 5869 5868 5868 5867 5867 5867 5867 5866 5866 5866 5865 5865 5864 5864 5864 5863 5863 5863 5862 5862 5861 5861 5861 5860 5860 5859 5859 5859 5859 5858 5858 5857 5857 5856 5856 5856 5855 5855 5854 5854 5853 5853 5853 5853 5852 5852 5851 5851 5851 5850 5850 5850 5849 5849 5849 5848 5848 5847 5847 5847 5846 5846 5845 5845 5845 5844 5844 5844 5844 5843 5843 5843 5843 5842 5842 5842 5841 5841 5841 5840 5840 5840 5840 5839 5839 5839 5839 5838 5838 5837 5837 5837 5836
5872 5871 5871 5870 5870 5870 5869 5869 5869 5868 5868 5867 5866 5866 5865 5865 5865 5865 5864 5864 5864 5864 5863 5863 5862 5862 5862 5861 5861 5860 5860 5859 5859 5859 5858 5858 5858 5857 5857 5857 5856 5856 5855 5855 5854 5854 5854 5854 5853 5852 5852 5851 5851 5851 5851 5850 5850 5849 5849 5849 5849 5848 5848 5847 5847 5846 5846 5846 5845 5845 5845 5844 5844 5844 5843 5843 5843 5842 5842 5842 5841 5841 5841 5840 5840 5840 5840 5839 5839 5839 5839 5839 5838 5838 5838 5837 5837 5837 5836 5836 5836 5835 5835
5870 5870 5869 5869 5869 5868 5868 5868 5867 5867 5866 5866 5865 5865 5864 5864 5864 5863 5863 5863 5862 5862 5862 5861 5861 5860 5860 5860 5859 5859 5858 5858 5857 5857 5857 5856 5856 5856 5855 5855 5854 5854 5854 5853 5853 5853 5853 5852 5852 5851 5850 5850 5849 5849 5849 5849 5848 5848 5848 5847 5847 5846 5846 5846 5845 5845 5844 5844 5844 5844 5843 5843 5842 5842 5842 5841 5841 5841 5840 5840 5840 5839 5839 5839 5839 5838 5838 5838 5838 5837 5837 5837 5837 5836 5836 5836 5835 5835 5835 5834 5834 5834 5834
5869 5869 5868 5868 5867 5867 5867 5866 5866 5866 5865 5865 5864 5864 5863 5863 5862 5862 5861 5861 5861 5860 5860 5859 5859 5859 5858 5858 5858 5857 5857 5856 5856 5855 5855 5855 5854 5854 5854 5853 5853 5853 5852 5852 5851 5851 5851 5851 5850 5849 5849 5848 5848 5848 5847 5847 5847 5846 5846 5845 5845 5845 5844 5844 5844 5844 5843 5843 5842 5842 5841 5841 5841 5840 5840 5840 5839 5839 5839 5839 5838 5838 5838 5837 5837 5837 5836 5836 5836 5836 5835 5835 5835 5834 5834 5834 5834 5834 5834 5833 5833 5833 5832
5867 5867 5867 5866 5866 5866 5865 5865 5864 5864 5864 5864 5863 5862 5862 5861 5861 5860 5860 5859 5859 5859 5858 5858 5858 5857 5857 5856 5856 5855 5855 5855 5854 5854 5854 5853 5853 5852 5852 5852 5851 5851 5850 5850 5850 5849 5849 5849 5849 5848 5847 5847 5846 5846 5846 5845 5845 5844 5844 5844 5844 5843 5843 5842 5842 5842 5841 5841 5841 5840 5840 5839 5839 5839 5839 5838 5838 5838 5837 5837 5836 5836 5836 5835 5835 5835 5835 5834 5834 5834 5834 5834 5833 5833 5833 5833 5832 5832 5832 5832 5831 5831 5831
5866 5865 5865 5865 5864 5864 5864 5863 5863 5862 5862 5862 5862 5861 5861 5860 5859 5859 5858 5858 5858 5857 5857 5856 5856 5855 5855 5854 5854 5854 5854 5853 5853 5852 5852 5851 5851 5851 5850 5850 5849 5849 5849 5849 5848 5848 5848 5848 5847 5847 5846 5845 5844 5844 5844 5844 5843 5843 5843 5842 5842 5841 5841 5841 5840 5840 5840 5839 5839 5839 5838 5838 5837 5837 5837 5836 5836 5836 5835 5835 5835 5834 5834 5834 5834 5833 5833 5833 5833 5832 5832 5832 5832 5831 5831 5831 5831 5830 5830 5830 5830 5829 5829
5864 5864 5864 5863 5863 5862 5862 5862 5861 5861 5860 5860 5860 5860 5859 5859 5858 5857 5857 5856 5856 5855 5855 5854 5854 5854 5853 5853 5852 5852 5852 5851 5851 5850 5850 5850 5849 5849 5849 5848 5848 5847 5847 5847 5847 5846 5846 5846 5846 5845 5844 5844 5843 5843 5842 5842 5842 5841 5841 5840 5840 5840 5839 5839 5839 5838 5838 5838 5837 5837 5836 5836 5836 5835 5835 5835 5834 5834 5834 5834 5833 5833 5832 5832 5832 5832 5831 5831 5831 5831 5830 5830 5830 5829 5829 5829 5829 5829 5829 5828 5828 5828 5828
5862 5862 5862 5862 5861 5861 5860 5860 5860 5859 5859 5858 5858 5858 5858 5858 5857 5856 5855 5854 5854 5853 5853 5853 5852 5852 5852 5851 5851 5850 5850 5849 5849 5849 5848 5848 5848 5847 5847 5846 5846 5845 5845 5845 5845 5845 5845 5844 5844 5844 5843 5842 5841 5841 5840 5840 5840 5839 5839 5839 5838 5838 5837 5837 5837 5836 5836 5836 5835 5835 5834 5834 5834 5834 5833 5833 5833 5832 5832 5832 5831 5831 5831 5830 5830 5830 5829 5829 5829 5829 5829 5828 5828 5828 5828 5827 5827 5827 5827 5826 5826 5826 5826
5861 5860 5860 5860 5860 5859 5859 5859 5858 5858 5857 5857 5856 5856 5856 5856 5856 5855 5854 5854 5853 5852 5851 5851 5850 5850 5850 5849 5849 5849 5848 5848 5847 5847 5846 5846 5846 5845 5845 5844 5844 5844 5843 5843 5843 5843 5843 5843 5843 5842 5841 5841 5840 5839 5839 5838 5838 5837 5837 5837 5836 5836 5835 5835 5835 5834 5834 5834 5834 5833 5833 5832 5832 5832 5831 5831 5831 5830 5830 5830 5829 5829 5829 5829 5828 5828 5828 5828 5827 5827 5827 5827 5826 5826 5826 5826 5825 5825 5825 5825 5824 5824 5824
5859 5859 5859 5859 5858 5858 5858 5857 5857 5856 5856 5855 5854 5854 5854 5854 5854 5854 5853 5853 5852 5851 5850 5849 5849 5848 5848 5847 5847 5847 5846 5846 5845 5845 5844 5844 5844 5843 5843 5843 5842 5842 5841 5841 5841 5841 5841 5841 5841 5840 5840 5839 5838 5837 5837 5836 5836 5835 5835 5835 5834 5834 5834 5833 5833 5833 5832 5832 5832 5831 5831 5830 5830 5830 5829 5829 5829 5829 5828 5828 5828 5827 5827 5827 5826 5826 5826 5826 5825 5825 5825 5825 5824 5824 5824 5824 5824 5823 5823 5823 5823 5822 5822
5858 5857 5857 5857 5856 5856 5856 5856 5855 5855 5854 5854 5853 5852 5852 5852 5852 5852 5851 5851 5850 5850 5849 5848 5848 5847 5846 5846 5845 5845 5844 5844 5844 5843 5843 5842 5842 5841 5841 5841 5840 5840 5839 5839 5839 5839 5839 5839 5839 5839 5838 5838 5837 5836 5835 5834 5834 5834 5833 5833 5833 5832 5832 5831 5831 5830 5830 5830 5829 5829 5829 5829 5828 5828 5828 5827 5827 5827 5826 5826 5826 5825 5825 5825 5824 5824 5824 5824 5824 5823 5823 5823 5823 5823 5822 5822 5822 5821 5821 5821 5821 5820 5820
5856 5856 5855 5855 5855 5854 5854 5854 5853 5853 5853 5852 5851 5851 5850 5849 5849 5849 5849 5849 5849 5848 5847 5847 5846 5845 5845 5844 5844 5843 5843 5842 5842 5841 5841 5840 5840 5839 5839 5839 5838 5838 5837 5837 5836 5836 5836 5836 5836 5836 5836 5836 5835 5834 5833 5832 5832 5831 5831 5831 5831 5830 5830 5829 5829 5829 5828 5828 5828 5827 5827 5827 5826 5826 5826 5825 5825 5825 5824 5824 5824 5824 5823 5823 5823 5822 5822 5822 5821 5821 5821 5821 5821 5820 5820 5820 5820 5819 5819 5819 5819 5819 5819
5854 5854 5854 5853 5853 5852 5852 5852 5851 5851 5850 5850 5850 5849 5849 5848 5847 5847 5847 5847 5846 5846 5845 5845 5844 5844 5843 5842 5842 5841 5840 5840 5839 5839 5839 5838 5838 5838 5837 5837 5836 5836 5835 5835 5834 5834 5834 5834 5834 5834 5834 5834 5833 5832 5831 5831 5830 5829 5829 5829 5829 5828 5828 5827 5827 5826 5826 5826 5825 5825 5825 5824 5824 5824 5824 5823 5823 5823 5822 5822 5822 5821 5821 5821 5820 5820 5820 5820 5819 5819 5819 5819 5819 5819 5818 5818 5818 5818 5817 5817 5817 5817 5816
5852 5852 5852 5851 5851 5850 5850 5849 5849 5849 5848 5848 5848 5847 5847 5846 5845 5845 5844 5844 5844 5844 5843 5843 5842 5841 5841 5840 5840 5839 5839 5838 5837 5837 5836 5836 5836 5835 5835 5834 5834 5834 5833 5833 5832 5832 5831 5831 5831 5831 5831 5831 5831 5830 5830 5829 5828 5827 5827 5827 5826 5826 5825 5825 5824 5824 5824 5824 5823 5823 5823 5823 5822 5822 5822 5821 5821 5821 5820 5820 5820 5819 5819 5819 5819 5818 5818 5818 5817 5817 5817 5817 5817 5816 5816 5816 5816 5815 5815 5815 5815 5814 5814
5851 5850 5850 5849 5849 5849 5848 5847 5847 5846 5846 5846 5845 5845 5844 5844 5843 5843 5842 5842 5841 5841 5841 5840 5840 5839 5839 5838 5838 5837 5836 5836 5835 5834 5834 5834 5833 5833 5833 5832 5832 5832 5831 5831 5830 5829 5829 5829 5829 5829 5829 5829 5829 5828 5828 5827 5826 5825 5825 5824 5824 5824 5824 5823 5822 5822 5822 5821 5821 5821 5820 5820 5820 5820 5819 5819 5819 5819 5818 5818 5818 5817 5817 5817 5816 5816 5816 5815 5815 5815 5815 5814 5814 5814 5814 5814 5814 5813 5813 5813 5813 5812 5812
5849 5849 5848 5848 5847 5847 5846 5845 5845 5844 5844 5844 5843 5843 5843 5842 5841 5841 5840 5839 5839 5839 5838 5838 5837 5837 5837 5836 5836 5835 5834 5834 5833 5832 5832 5831 5831 5830 5830 5830 5829 5829 5829 5829 5828 5827 5827 5826 5826 5826 5826 5826 5826 5826 5826 5825 5824 5824 5823 5822 5822 5822 5821 5821 5820 5820 5819 5819 5819 5819 5818 5818 5818 5817 5817 5817 5817 5816 5816 5816 5815 5815 5815 5814 5814 5814 5814 5814 5813 5813 5813 5812 5812 5812 5812 5811 5811 5811 5811 5810 5810 5810 5810
5848 5847 5847 5846 5845 5844 5844 5843 5843 5842 5842 5841 5841 5841 5840 5840 5839 5839 5838 5837 5837 5836 5836 5835 5835 5834 5834 5834 5833 5833 5832 5832 5831 5830 5829 5829 5829 5828 5828 5827 5827 5827 5826 5826 5826 5825 5824 5824 5824 5823 5824 5824 5824 5824 5823 5823 5822 5822 5821 5820 5820 5819 5819 5819 5818 5818 5817 5817 5816 5816 5816 5815 5815 5815 5815 5814 5814 5814 5814 5813 5813 5813 5813 5812 5812 5812 5811 5811 5811 5811 5810 5810 5810 5809 5809 5809 5809 5809 5809 5808 5808 5808 5808
5846 5845 5845 5844 5844 5843 5842 5841 5841 5840 5840 5839 5839 5839 5838 5838 5837 5837 5836 5835 5834 5834 5834 5833 5832 5832 5832 5831 5831 5830 5829 5829 5829 5828 5827 5827 5826 5826 5825 5825 5824 5824 5824 5823 5823 5823 5822 5821 5821 5821 5820 5821 5821 5821 5821 5820 5820 5819 5819 5818 5818 5817 5817 5816 5816 5815 5814 5814 5814 5814 5813 5813 5813 5813 5812 5812 5812 5812 5811 5811 5811 5810 5810 5810 5809 5809 5809 5809 5809 5809 5808 5808 5808 5807 5807 5807 5806 5806 5806 5806 5805 5805 5805
5843 5843 5843 5842 5841 5841 5840 5839 5839 5839 5838 5838 5837 5837 5836 5835 5835 5834 5834 5833 5832 5832 5831 5831 5830 5830 5829 5829 5829 5828 5827 5827 5826 5825 5825 5824 5824 5823 5823 5822 5822 5821 5821 5821 5820 5820 5819 5819 5818 5818 5818 5818 5818 5818 5818 5818 5818 5817 5817 5816 5815 5815 5814 5814 5813 5813 5812 5812 5811 5811 5811 5810 5810 5810 5810 5810 5809 5809 5809 5809 5808 5808 5808 5807 5807 5807 5807 5806 5806 5806 5806 5805 5805 5805 5804 5804 5804 5804 5803 5803 5803 5803 5803
5841 5840 5840 5840 5839 5839 5838 5837 5837 5836 5836 5836 5835 5834 5834 5834 5833 5832 5831 5831 5830 5829 5829 5829 5828 5827 5827 5826 5826 5825 5825 5824 5824 5823 5822 5821 5821 5820 5820 5820 5819 5819 5819 5818 5818 5817 5817 5816 5816 5815 5815 5815 5814 5814 5815 5815 5815 5814 5814 5814 5813 5813 5812 5811 5811 5810 5810 5809 5809 5809 5808 5808 5808 5808 5807 5807 5807 5807 5806 5806 5806 5805 5805 5805 5805 5804 5804 5804 5804 5804 5803 5803 5803 5803 5802 5802 5801 5801 5801 5800 5800 5800 5800
5838 5838 5838 5837 5837 5836 5836 5835 5835 5834 5834 5834 5833 5833 5832 5831 5831 5830 5829 5829 5828 5827 5827 5826 5826 5825 5824 5824 5824 5823 5822 5821 5821 5820 5819 5819 5818 5818 5817 5817 5817 5816 5816 5815 5815 5814 5814 5813 5813 5812 5812 5812 5812 5811 5811 5811 5811 5811 5811 5811 5811 5810 5809 5809 5808 5807 5807 5807 5806 5806 5806 5805 5805 5805 5805 5804 5804 5804 5804 5804 5803 5803 5803 5802 5802 5802 5802 5801 5801 5801 5801 5801 5800 5800 5800 5799 5799 5799 5798 5798 5798 5797 5797
5836 5835 5835 5834 5834 5834 5834 5833 5833 5832 5832 5831 5831 5830 5830 5829 5829 5828 5827 5826 5826 5825 5824 5824 5824 5823 5822 5822 5821 5820 5819 5819 5818 5817 5816 5816 5815 5815 5815 5814 5814 5813 5813 5812 5811 5811 5810 5810 5809 5809 5809 5809 5809 5808 5808 5808 5808 5808 5808 5808 5808 5807 5807 5806 5805 5805 5804 5804 5804 5803 5803 5803 5803 5802 5802 5802 5802 5801 5801 5801 5800 5800 5800 5800 5799 5799 5799 5799 5799 5799 5798 5798 5798 5798 5797 5797 5797 5796 5796 5795 5795 5795 5794
5833 5833 5832 5832 5832 5831 5831 5831 5830 5830 5830 5829 5829 5828 5828 5827 5826 5826 5825 5824 5824 5823 5823 5822 5821 5821 5820 5819 5819 5818 5817 5816 5815 5814 5814 5813 5813 5812 5812 5811 5811 5810 5809 5809 5808 5808 5807 5807 5806 5806 5806 5806 5805 5805 5804 5804 5804 5804 5804 5804 5804 5804 5804 5803 5803 5802 5801 5801 5800 5800 5800 5800 5800 5799 5799 5799 5799 5799 5798 5798 5798 5798 5797 5797 5797 5797 5796 5796 5796 5796 5795 5795 5795 5795 5794 5794 5794 5794 5794 5793 5793 5792 5792
5831 5830 5830 5829 5829 5829 5829 5828 5828 5828 5827 5827 5827 5826 5825 5825 5824 5823 5823 5822 5821 5821 5820 5819 5819 5818 5818 5817 5816 5815 5814 5813 5812 5811 5810 5810 5810 5809 5809 5808 5807 5807 5806 5805 5805 5804 5804 5804 5803 5803 5803 5803 5802 5802 5801 5801 5801 5801 5801 5801 5801 5801 5800 5800 5800 5799 5799 5798 5798 5797 5797 5797 5797 5797 5797 5796 5796 5796 5795 5795 5795 5794 5794 5794 5794 5794 5793 5793 5793 5793 5793 5792 5792 5792 5792 5792 5791 5791 5791 5790 5790 5790 5789
5829 5828 5828 5827 5827 5826 5826 5825 5825 5825 5825 5824 5824 5824 5823 5822 5822 5821 5820 5819 5819 5818 5817 5817 5816 5815 5815 5814 5814 5813 5811 5810 5809 5808 5808 5807 5807 5806 5806 5805 5804 5803 5803 5803 5802 5801 5801 5801 5800 5799 5799 5799 5799 5799 5798 5798 5797 5797 5797 5797 5797 5797 5797 5797 5797 5796 5796 5795 5795 5794 5794 5794 5794 5794 5794 5793 5793 5793 5792 5792 5792 5792 5791 5791 5791 5790 5790 5790 5790 5790 5789 5789 5789 5789 5789 5789 5789 5788 5788 5788 5787 5787 5787
5827 5826 5825 5825 5824 5824 5823 5823 5823 5822 5822 5822 5822 5821 5820 5820 5819 5818 5817 5817 5816 5815 5814 5814 5813 5813 5812 5811 5811 5810 5809 5807 5806 5805 5804 5804 5803 5803 5802 5802 5801 5800 5800 5799 5799 5799 5798 5797 5797 5796 5796 5796 5795 5795 5795 5794 5794 5793 5793 5793 5793 5793 5793 5793 5793 5793 5793 5792 5792 5791 5791 5791 5790 5790 5790 5790 5790 5790 5789 5789 5789 5789 5788 5788 5788 5787 5787 5787 5787 5787 5786 5786 5786 5786 5786 5785 5785 5785 5785 5784 5784 5784 5784
5824 5824 5823 5823 5822 5821 5821 5820 5820 5819 5819 5819 5819 5818 5818 5817 5816 5815 5814 5814 5813 5812 5812 5811 5810 5810 5809 5809 5808 5807 5806 5805 5804 5803 5802 5801 5800 5799 5798 5798 5798 5798 5797 5797 5796 5795 5795 5794 5794 5793 5793 5792 5792 5791 5791 5790 5790 5789 5789 5789 5789 5789 5789 5789 5789 5789 5789 5789 5789 5789 5788 5788 5787 5787 5787 5787 5787 5787 5786 5786 5786 5785 5785 5785 5784 5784 5784 5784 5783 5783 5783 5783 5783 5783 5782 5782 5782 5782 5782 5781 5781 5781 5781
5822 5822 5821 5820 5820 5819 5818 5818 5817 5817 5816 5816 5816 5815 5815 5814 5813 5813 5812 5811 5810 5809 5809 5808 5807 5807 5807 5806 5805 5804 5803 5802 5801 5800 5799 5798 5797 5796 5794 5794 5794 5794 5794 5794 5793 5792 5792 5791 5791 5790 5790 5789 5788 5787 5786 5786 5786 5786 5786 5786 5786 5785 5785 5785 5785 5785 5785 5785 5785 5785 5785 5784 5784 5783 5783 5783 5783 5783 5783 5783 5782 5782 5782 5781 5781 5781 5780 5780 5780 5780 5779 5779 5779 5779 5779 5779 5779 5778 5778 5778 5778 5778 5778
5819 5819 5819 5818 5817 5817 5816 5815 5814 5814 5814 5813 5813 5812 5812 5811 5810 5810 5809 5808 5807 5806 5806 5805 5804 5804 5803 5803 5802 5801 5800 5799 5798 5797 5796 5794 5794 5793 5792 5791 5791 5790 5790 5789 5789 5789 5789 5789 5788 5787 5786 5785 5784 5783 5783 5782 5782 5782 5782 5782 5782 5782 5781 5781 5781 5781 5781 5781 5781 5781 5781 5781 5780 5780 5779 5779 5780 5780 5779 5779 5779 5779 5779 5778 5778 5777 5777 5777 5776 5776 5776 5776 5776 5775 5775 5775 5775 5775 5775 5774 5774 5774 5774
5816 5816 5815 5815 5815 5814 5814 5813 5812 5811 5811 5810 5810 5809 5809 5809 5808 5807 5806 5805 5804 5804 5803 5802 5802 5801 5800 5800 5799 5798 5797 5796 5795 5794 5794 5792 5790 5789 5789 5789 5788 5787 5787 5786 5784 5784 5786 5786 5784 5783 5782 5781 5780 5779 5779 5779 5779 5778 5778 5778 5778 5778 5777 5777 5777 5777 5777 5777 5777 5777 5777 5777 5777 5776 5776 5776 5776 5776 5776 5776 5776 5775 5775 5775 5774 5774 5774 5773 5773 5773 5773 5772 5772 5772 5772 5771 5771 5771 5771 5771 5771 5771 5771
5813 5813 5812 5812 5812 5811 5811 5810 5809 5809 5808 5808 5807 5807 5806 5806 5805 5804 5803 5802 5801 5801 5800 5799 5799 5798 5797 5796 5796 5795 5794 5793 5792 5791 5790 5789 5788 5786 5784 5784 5784 5784 5783 5782 5781 5780 5782 5783 5781 5778 5778 5778 5777 5776 5775 5775 5775 5774 5774 5774 5774 5774 5774 5773 5773 5773 5773 5773 5773 5773 5773 5773 5773 5773 5773 5772 5772 5773 5773 5772 5772 5772 5772 5771 5771 5770 5770 5769 5769 5769 5769 5769 5769 5768 5768 5768 5768 5768 5768 5768 5768 5768 5767
5810 5810 5809 5809 5809 5808 5808 5807 5807 5806 5805 5805 5804 5804 5804 5803 5802 5801 5800 5799 5798 5797 5797 5795 5795 5794 5794 5793 5792 5792 5791 5789 5789 5788 5787 5786 5785 5784 5782 5780 5780 5779 5779 5779 5778 5777 5777 5777 5776 5775 5774 5775 5774 5772 5772 5772 5771 5770 5770 5770 5770 5770 5769 5769 5769 5769 5769 5768 5768 5769 5769 5769 5769 5769 5769 5769 5769 5769 5769 5769 5769 5768 5768 5768 5767 5767 5767 5766 5766 5766 5765 5765 5765 5764 5764 5764 5764 5764 5764 5764 5764 5764 5764
5808 5807 5807 5806 5806 5805 5805 5804 5804 5803 5803 5802 5802 5801 5801 5800 5799 5798 5797 5796 5795 5794 5793 5792 5791 5791 5791 5790 5789 5788 5787 5786 5785 5785 5784 5782 5781 5781 5780 5778 5776 5775 5774 5774 5774 5774 5773 5773 5772 5771 5770 5772 5771 5769 5768 5768 5767 5766 5766 5765 5765 5765 5765 5765 5765 5764 5764 5764 5764 5764 5764 5764 5764 5764 5764 5764 5765 5765 5765 5765 5765 5764 5764 5764 5764 5764 5763 5763 5762 5762 5762 5761 5761 5761 5760 5760 5761 5761 5761 5761 5761 5760 5760
5805 5804 5804 5804 5803 5803 5802 5801 5801 5800 5800 5799 5799 5799 5798 5797 5797 5796 5794 5793 5792 5791 5790 5789 5788 5788 5787 5787 5785 5784 5783 5783 5782 5781 5780 5779 5778 5777 5776 5775 5774 5772 5770 5769 5769 5769 5768 5769 5768 5767 5765 5768 5768 5766 5764 5763 5763 5762 5762 5761 5761 5761 5760 5760 5760 5760 5760 5760 5760 5760 5760 5760 5760 5760 5760 5760 5760 5761 5761 5761 5761 5761 5761 5760 5760 5759 5759 5759 5759 5758 5758 5758 5757 5757 5757 5757 5757 5757 5757 5757 5757 5757 5757
5802 5802 5801 5800 5800 5799 5799 5799 5798 5798 5797 5796 5796 5795 5795 5794 5794 5793 5792 5791 5789 5788 5787 5787 5786 5785 5784 5783 5782 5781 5779 5779 5778 5778 5777 5775 5774 5774 5773 5771 5770 5769 5767 5765 5765 5764 5763 5762 5763 5763 5761 5762 5762 5763 5762 5760 5759 5758 5758 5757 5757 5756 5756 5756 5756 5756 5756 5756 5756 5755 5755 5755 5755 5755 5755 5755 5756 5756 5757 5757 5757 5757 5757 5756 5756 5756 5755 5755 5754 5754 5754 5754 5753 5753 5753 5753 5754 5754 5754 5754 5753 5753 5753
5799 5798 5798 5797 5797 5796 5796 5795 5795 5794 5794 5793 5793 5792 5792 5791 5790 5790 5789 5788 5786 5786 5786 5785 5784 5783 5781 5780 5779 5777 5775 5774 5774 5774 5773 5772 5770 5770 5769 5767 5765 5764 5764 5762 5761 5760 5759 5757 5757 5757 5757 5756 5755 5756 5758 5757 5755 5754 5753 5753 5752 5752 5752 5752 5752 5752 5752 5752 5751 5751 5751 5751 5751 5751 5751 5751 5751 5752 5752 5753 5753 5754 5753 5753 5752 5752 5751 5751 5750 5750 5750 5749 5749 5749 5749 5750 5750 5750 5750 5750 5749 5749 5749
5796 5795 5795 5794 5794 5793 5793 5792 5792 5791 5791 5790 5789 5789 5789 5788 5787 5787 5787 5785 5784 5784 5783 5782 5780 5779 5779 5778 5775 5773 5771 5771 5770 5770 5770 5768 5767 5766 5765 5764 5762 5760 5760 5758 5757 5755 5755 5753 5753 5752 5752 5751 5750 5750 5751 5752 5752 5751 5749 5749 5748 5748 5747 5747 5748 5748 5748 5747 5747 5747 5747 5746 5746 5747 5746 5746 5746 5747 5747 5748 5749 5749 5749 5749 5749 5748 5748 5747 5746 5746 5746 5745 5745 5745 5746 5746 5746 5746 5746 5746 5746 5745 5745
5793 5793 5792 5791 5791 5790 5789 5789 5789 5788 5787 5787 5786 5786 5786 5786 5785 5784 5784 5782 5781 5780 5779 5778 5776 5775 5775 5773 5771 5770 5769 5767 5766 5765 5765 5764 5763 5762 5761 5760 5759 5757 5757 5755 5754 5752 5750 5749 5749 5748 5747 5746 5745 5744 5744 5745 5746 5746 5745 5744 5744 5743 5743 5743 5743 5743 5743 5743 5743 5743 5742 5742 5742 5742 5742 5742 5742 5742 5743 5743 5744 5745 5745 5745 5745 5744 5744 5744 5743 5742 5742 5742 5742 5742 5742 5742 5742 5742 5742 5742 5742 5742 5742